Location: Palomar Mountain Lodge
(33.3110°N, 116.8495°W)
Time: 01:26:20
(UTC-07:00)

Cosmos 2263 Rocket - Pass Details

Date: 14 June 2018
Orbit: 823 x 849 km, 71.0° (Epoch: 20 October)

Event Time Altitude Azimuth Distance (km) Brightness Sun altitude
Rises 21:47:36 0° 205° (SSW) 3,392 5.1 -19.0°
Reaches altitude 10° 21:50:03 10° 208° (SSW) 2,460 4.4 -19.3°
Maximum altitude 21:55:41 70° 291° (WNW) 895 2.4 -20.1°
Drops below altitude 10° 22:01:20 10° 16° (NNE) 2,464 5.0 -20.9°
Sets 22:03:48 0° 18° (NNE) 3,399 5.8 -21.2°
